Garden City, KS

11:22 AM CDT on March 25, 2017 (GMT -0500)
Garden City Regional

Weather History for KGCK - November, 2011

Change the Weather History Date:

Saturday, November 5, 2011

  Actual Average Record
Temperature  
Mean Temperature 52 °F 47 °F  
Max Temperature 64 °F 61 °F 79 °F (1950)
Min Temperature 39 °F 33 °F 11 °F (1967)
Degree Days  
Heating Degree Days 14 18  
Month to date heating degree days 86  
Since 1 July heating degree days 476  
Cooling Degree Days 0 0  
Month to date cooling degree days 0  
Year to date cooling degree days 1298  
Growing Degree Days 2 (Base 50)    
Moisture  
Dew Point 23 °F    
Average Humidity 36    
Maximum Humidity 51    
Minimum Humidity 24    
Precipitation  
Precipitation 0.00 in 0.02 in 0.85 in (2013)
Month to date precipitation 0.10  
Year to date precipitation 18.50  
Sea Level Pressure  
Sea Level Pressure 29.62 in    
Wind  
Wind Speed 19 mph (South)    
Max Wind Speed 33 mph    
Max Gust Speed 41 mph    
Visibility 10 miles    
Events      
T = Trace of Precipitation, MM = Missing Value Source: NWS Daily Summary

Daily Weather History Graph

Daily Weather History Graph

Search for Another Location

Airport or City:

Trip Planner

Search our weather history database for the weather conditions in past years. The results will help you decide how hot, cold, wet, or windy it might be!

Date:

Astronomy

Nov. 05, 2011 Rise Set
Actual Time 8:12 AM CDT 6:39 PM CDT
Civil Twilight 7:44 AM CDT 7:07 PM CDT
Nautical Twilight 7:13 AM CDT 7:38 PM CDT
Astronomical Twilight 6:42 AM CDT 8:09 PM CDT
Moon 3:54 PM CDT (11/5) 3:28 AM CDT (11/5)
Length of Visible Light 11h 22m
Length of Day
10h 27m
Waxing Gibbous, 78% of the Moon is Illuminated
Nov 5
Waxing Gibbous
Nov 10
Full
Nov 18
Last Quarter
Nov 25
New
Dec 2
First Quarter

Hourly Weather History & Observations

Time (CDT) Temp. Windchill Dew Point Humidity Pressure Visibility Wind Dir Wind Speed Gust Speed Precip Events Conditions
12:54 AM 41.0 °F 33.5 °F 23.0 °F 49% 29.84 in 10.0 mi SSE 13.8 mph - N/A   Clear
1:54 AM 42.1 °F 34.5 °F 23.0 °F 47% 29.81 in 10.0 mi SSE 15.0 mph 25.3 mph N/A   Clear
2:54 AM 39.9 °F 32.5 °F 23.0 °F 51% 29.80 in 10.0 mi SSE 12.7 mph - N/A   Clear
3:54 AM 39.9 °F 32.5 °F 21.9 °F 49% 29.77 in 10.0 mi South 12.7 mph - N/A   Clear
4:54 AM 39.9 °F 31.8 °F 21.9 °F 49% 29.75 in 10.0 mi South 15.0 mph - N/A   Clear
5:54 AM 39.9 °F 31.8 °F 21.9 °F 49% 29.73 in 10.0 mi SSE 15.0 mph - N/A   Clear
6:54 AM 39.0 °F 29.9 °F 21.0 °F 49% 29.72 in 10.0 mi SSE 17.3 mph 24.2 mph N/A   Clear
7:54 AM 39.0 °F 29.9 °F 21.0 °F 49% 29.72 in 10.0 mi SSE 17.3 mph - N/A   Clear
8:54 AM 39.0 °F 31.8 °F 21.9 °F 50% 29.70 in 10.0 mi SSE 11.5 mph - N/A   Clear
9:54 AM 44.1 °F 36.5 °F 21.9 °F 42% 29.68 in 10.0 mi SSE 17.3 mph 28.8 mph N/A   Clear
10:54 AM 48.9 °F - 21.9 °F 35% 29.66 in 10.0 mi South 29.9 mph 40.3 mph N/A   Clear
11:54 AM 52.0 °F - 23.0 °F 32% 29.63 in 10.0 mi South 31.1 mph 39.1 mph N/A   Clear
12:54 PM 59.0 °F - 24.1 °F 26% 29.58 in 10.0 mi South 29.9 mph 41.4 mph N/A   Clear
1:54 PM 61.0 °F - 24.1 °F 24% 29.52 in 10.0 mi South 27.6 mph 41.4 mph N/A   Clear
2:54 PM 62.1 °F - 25.0 °F 24% 29.49 in 10.0 mi South 33.4 mph 41.4 mph N/A   Clear
3:54 PM 64.0 °F - 26.1 °F 24% 29.47 in 10.0 mi South 31.1 mph 41.4 mph N/A   Clear
4:54 PM 64.0 °F - 26.1 °F 24% 29.45 in 10.0 mi South 25.3 mph 39.1 mph N/A   Clear
5:54 PM 61.0 °F - 28.0 °F 29% 29.44 in 10.0 mi South 20.7 mph 33.4 mph N/A   Overcast
6:54 PM 62.1 °F - 27.0 °F 26% 29.44 in 10.0 mi South 27.6 mph 36.8 mph N/A   Overcast
7:54 PM 57.9 °F - 24.1 °F 27% 29.49 in 10.0 mi South 24.2 mph 34.5 mph N/A   Partly Cloudy
8:54 PM 55.9 °F - 21.0 °F 26% 29.50 in 10.0 mi South 24.2 mph 33.4 mph N/A   Clear
9:54 PM 55.0 °F - 21.0 °F 27% 29.53 in 10.0 mi SSW 23.0 mph 34.5 mph N/A   Clear
10:54 PM 52.0 °F - 21.9 °F 31% 29.57 in 10.0 mi SSW 18.4 mph - N/A   Clear
11:54 PM 51.1 °F - 21.9 °F 32% 29.60 in 10.0 mi SW 20.7 mph 26.5 mph N/A   Clear